Location: *
(58.4167°N, 22.5000°E)
Time: 07:11:31
(UTC+00:00)

Cosmos 1626 Rocket - Pass Details

Date: 22 September 2019
Orbit: 602 x 632 km, 82.5° (Epoch: 20 October)

Event Time Altitude Azimuth Distance (km) Brightness Sun altitude
Rises 18:19:49 0° 346° (NNW) 2,876 7.6 -14.6°
Reaches altitude 10° 18:22:02 10° 346° (NNW) 1,966 6.7 -14.9°
Maximum altitude 18:26:23 87° 263° (W) 613 3.5 -15.4°
Enters shadow 18:30:03 14° 170° (S) 1,680 5.4 -15.8°
